Wind_Speed
1 2 4 4 3 1 1 0 2 3 3 2 3 3 5 5 6 5 2 2 1 2 5 6 7 10 11 14 13 10 9 5 2 4 6 7 6 5 6 6 6 5 4 5 5 6 7 6 5 4 3 2 3 5 6 7 8 10 12 13 15 15 16 18 19 20 22 23 23 23 25 26 26 26 26 27 27 27 27 26 25 25 25 24 22 20
1 4 4 1 3 4 4 4 4 3 2 2 3 5 5 5 5 1 3 3 2 1 4 5 8 10 12 15 13 9 5 3 7 7 7 6 5 5 6 6 5 3 3 4 4 7 10 8 6 4 2 2 1 1 2 4 5 7 9 11 13 14 15 16 18 19 21 24 24 24 26 26 26 26 26 27 27 27 27 26 26 26 25 24 22 21
2 4 1 3 3 2 3 3 3 1 2 3 4 4 4 5 3 3 3 3 3 1 4 6 7 9 14 15 9 4 4 7 7 6 6 6 6 6 6 6 6 6 6 5 6 10 12 8 6 5 4 4 3 3 4 4 4 6 7 9 11 12 13 15 17 19 21 22 23 24 24 24 24 24 25 26 26 26 26 26 26 26 26 25 23 23
4 2 2 3 4 3 1 2 0 2 3 4 5 4 4 2 2 0 1 2 3 4 5 6 6 8 13 10 2 6 7 7 6 8 7 6 6 7 7 8 8 9 9 9 9 9 11 10 9 9 8 7 7 8 8 7 7 7 7 8 9 11 12 14 15 17 20 21 21 21 22 22 22 21 21 21 22 22 23 24 25 26 27 26 25 24
4 1 3 3 3 3 2 1 2 3 3 4 4 3 4 2 2 1 2 3 4 3 3 4 5 6 7 3 5 5 5 7 6 8 8 6 7 7 8 9 8 8 7 8 8 8 10 12 12 12 11 10 11 11 11 10 9 9 8 9 9 10 12 13 14 16 17 19 20 20 21 21 21 22 21 20 20 20 22 23 25 27 28 27 26 25
3 1 2 3 2 1 2 3 2 3 3 3 0 2 2 3 3 3 5 6 4 3 1 0 3 3 3 2 6 5 5 7 6 8 9 8 8 8 8 8 7 7 7 7 7 7 9 11 12 12 12 12 12 11 10 9 10 10 10 10 10 10 10 12 13 14 15 17 19 20 21 21 21 22 23 24 25 25 25 26 27 27 28 28 27 27
1 0 1 2 2 1 2 4 2 2 2 4 2 3 4 3 2 3 4 3 1 3 2 2 1 2 4 2 6 7 7 8 8 9 9 8 7 7 6 6 6 7 6 6 7 7 9 11 11 12 14 14 13 11 10 9 10 11 12 13 12 11 11 11 12 14 15 17 19 20 21 23 23 23 25 25 26 27 29 30 29 29 28 28 28 28
2 1 1 1 1 2 2 3 2 2 1 3 3 2 3 2 3 3 2 1 3 5 4 5 4 2 5 4 6 10 9 8 9 8 8 7 7 7 6 7 7 7 6 6 6 7 8 11 12 12 13 12 10 9 9 10 11 11 12 14 13 12 12 12 12 13 15 16 19 20 22 24 25 26 27 26 25 25 26 28 30 30 29 29 29 29
0 1 1 0 1 2 1 0 3 3 0 1 2 1 2 4 4 3 2 3 4 4 5 5 5 2 5 2 6 9 9 8 8 7 7 7 7 7 7 7 7 7 7 6 6 6 8 10 10 10 10 8 7 7 7 9 11 11 12 13 13 13 13 13 12 13 14 16 18 20 21 24 25 26 27 26 26 25 24 25 27 27 28 28 28 29
1 1 0 0 0 1 0 1 1 2 1 1 2 3 5 6 4 2 3 3 3 3 4 4 7 2 4 3 4 5 6 6 6 6 6 7 7 6 6 6 6 6 6 6 6 7 8 8 8 7 7 7 6 6 6 8 11 11 11 13 13 14 14 14 14 13 14 15 18 20 22 24 25 25 26 25 25 24 24 24 24 24 25 26 27 28
2 1 1 0 0 1 2 1 1 2 2 2 3 4 5 4 3 2 3 2 1 3 3 1 5 2 2 1 1 2 2 5 7 6 6 6 6 6 6 6 6 5 5 5 5 6 7 7 6 5 6 7 6 7 7 8 10 11 12 13 14 15 16 15 15 15 15 15 17 19 21 23 24 25 25 25 25 24 23 24 23 23 24 25 26 27
2 0 0 1 1 1 2 2 1 1 2 1 3 3 4 2 2 1 1 1 1 2 3 3 2 0 2 2 1 3 4 6 8 6 6 6 5 5 5 6 6 5 5 5 4 5 5 5 6 6 7 8 8 8 9 9 11 12 13 14 15 16 17 16 16 17 17 16 17 18 20 21 23 23 24 24 25 25 24 24 23 23 24 25 25 26
2 1 0 1 1 1 1 2 0 0 1 3 3 3 3 2 1 1 1 1 1 2 1 3 4 2 4 2 4 6 6 8 8 6 6 5 4 5 5 5 5 5 5 5 5 5 5 6 8 8 7 9 9 10 10 11 12 13 15 16 17 18 18 17 18 18 18 17 18 19 20 21 22 22 23 24 25 25 25 25 24 23 24 26 26 26
1 3 1 1 0 1 2 2 1 1 1 2 2 2 2 2 2 3 2 2 1 1 2 2 3 2 4 1 5 7 7 8 8 7 6 4 4 4 5 5 5 5 5 5 5 5 5 7 11 11 10 10 10 11 12 13 14 15 17 18 19 21 20 18 19 19 18 18 19 20 20 20 21 22 22 23 24 25 25 25 25 25 25 26 27 28
1 2 1 1 1 2 2 1 1 1 3 2 0 1 1 0 2 3 1 2 3 2 2 1 1 2 3 1 5 8 8 7 6 5 4 4 3 3 4 5 5 5 5 5 4 5 7 9 13 14 13 11 11 12 13 15 18 19 19 21 21 22 21 20 20 18 17 19 19 19 19 20 21 22 23 23 24 25 25 25 25 26 26 26 27 27
2 2 0 1 1 1 1 1 1 1 2 2 1 2 0 1 1 2 2 4 5 4 2 1 2 2 2 4 5 7 7 7 6 5 4 4 3 3 4 5 4 5 5 5 5 6 8 12 16 17 16 13 11 12 14 18 20 21 22 23 22 21 21 22 21 19 18 19 19 17 16 17 20 22 23 24 25 26 26 26 26 27 27 27 26 26
2 3 1 1 1 1 2 1 1 2 1 1 2 1 2 2 1 1 4 4 3 3 2 2 2 1 3 3 3 6 6 6 6 6 5 5 5 5 4 5 5 5 5 5 6 6 9 15 20 22 21 15 11 14 17 20 22 23 25 24 21 21 22 23 23 23 23 23 21 16 13 14 16 20 22 24 25 26 27 27 27 27 27 27 26 25
1 3 2 1 1 1 0 2 2 1 1 1 0 3 3 0 1 1 2 3 2 3 2 1 2 3 0 1 2 5 5 6 6 5 5 6 7 6 5 6 5 6 6 8 9 9 12 17 21 25 24 15 12 17 20 22 24 26 27 24 23 25 26 26 27 26 26 25 22 18 15 14 14 16 19 22 25 26 26 27 28 27 27 27 26 24
2 3 2 1 1 1 1 1 2 1 1 0 2 3 1 1 1 1 0 2 2 3 3 2 3 4 2 0 2 4 5 5 5 5 6 7 7 6 6 6 6 9 9 10 11 9 11 16 21 25 21 12 15 20 22 25 27 27 27 26 27 28 28 29 29 29 29 29 27 25 21 18 16 16 17 20 23 25 26 27 28 27 26 26 25 25
2 1 2 2 1 1 1 0 1 0 1 2 3 2 2 2 2 1 1 1 1 3 4 2 2 2 2 3 5 5 5 5 5 6 6 7 8 8 8 8 10 12 11 10 10 10 13 19 24 24 18 15 20 23 25 27 26 25 25 26 28 29 30 30 30 31 33 33 33 33 30 26 23 20 18 19 22 23 26 28 27 27 25 24 24 24
2 2 2 2 2 1 0 1 1 1 1 1 1 0 1 1 1 1 1 1 1 3 3 3 3 1 2 4 6 6 5 5 6 6 6 9 11 11 12 12 12 12 11 11 11 12 15 21 24 21 16 19 23 26 27 27 25 24 25 25 27 29 30 29 29 29 30 31 32 33 33 33 31 27 23 21 21 23 25 27 27 27 25 24 24 25
2 2 3 3 3 3 1 0 2 2 1 2 1 0 1 1 1 2 3 0 1 2 1 2 4 2 3 5 6 6 5 6 8 8 9 11 12 13 12 12 12 11 11 12 12 13 16 20 21 18 19 24 27 28 30 31 29 27 26 27 28 29 28 28 28 28 29 29 29 30 32 34 35 33 28 23 22 23 25 26 27 27 25 25 25 26
1 2 3 4 5 2 1 1 2 3 2 2 2 2 3 2 2 1 4 2 2 2 1 1 4 3 2 5 7 8 8 8 9 10 10 11 11 12 12 12 13 12 12 14 14 14 16 19 21 23 27 30 31 32 34 33 31 30 30 31 32 31 30 29 29 29 28 28 29 31 33 33 35 35 29 24 23 24 24 26 27 27 26 26 26 27
2 1 2 4 4 1 2 1 1 2 2 3 2 3 3 2 2 1 3 1 1 2 2 3 3 2 1 4 9 10 10 10 10 10 11 11 11 12 13 13 12 13 14 15 12 12 17 22 25 27 29 31 32 33 33 32 33 33 34 35 34 32 32 31 31 30 29 30 32 33 34 34 36 35 31 26 25 24 24 25 26 27 27 26 26 27
2 0 1 3 4 2 2 1 2 2 3 3 2 4 4 3 4 1 2 1 1 3 2 3 4 1 2 7 11 11 11 11 11 12 13 13 12 12 12 12 12 13 15 14 10 11 16 21 24 27 28 30 31 31 31 32 33 34 34 34 34 34 35 35 34 32 33 35 35 34 34 35 36 34 31 28 26 25 24 25 26 27 27 26 27 27
1 1 2 2 3 3 3 2 2 3 3 2 2 4 4 4 4 1 2 1 1 3 4 3 5 4 8 13 14 13 14 15 14 15 15 13 13 13 12 12 13 14 14 12 11 13 16 20 24 27 28 29 29 29 31 34 35 34 33 33 35 36 37 37 36 35 35 35 33 32 32 33 33 32 30 28 28 28 26 25 26 27 27 27 28 28
1 2 2 2 4 4 4 5 4 5 5 4 3 4 2 2 4 2 1 1 2 5 4 3 6 11 12 12 12 13 15 15 14 16 15 14 14 15 13 13 14 13 11 11 13 14 17 20 24 28 29 30 31 32 34 35 34 33 34 36 40 41 38 36 35 33 32 31 30 30 32 35 36 35 32 31 32 32 28 25 25 26 27 28 28 28
2 3 1 2 4 5 6 9 8 6 5 4 5 5 2 4 4 2 1 3 4 4 3 4 10 13 12 10 11 12 14 13 13 15 15 15 15 14 14 15 15 13 12 14 15 17 18 18 21 28 32 33 33 33 34 34 34 35 36 38 41 40 36 34 33 33 32 32 32 34 37 39 38 35 33 33 34 32 28 26 25 25 26 27 27 28
1 2 1 2 4 7 9 11 9 5 3 3 6 6 5 4 3 3 1 4 4 3 6 8 12 12 9 10 11 13 14 14 15 15 15 15 15 16 17 17 15 14 15 16 17 18 19 19 22 28 32 32 33 34 36 37 36 35 36 37 37 38 37 38 37 35 34 35 37 40 43 41 38 35 35 34 33 30 27 26 27 27 28 28 28 29
1 1 0 1 5 8 8 7 5 2 2 6 7 7 7 6 4 4 2 5 7 5 7 11 13 10 7 11 13 14 14 14 13 14 14 16 18 20 19 16 15 16 17 17 18 19 19 21 26 29 31 32 35 38 38 36 34 35 37 37 38 40 42 40 37 36 38 41 44 45 43 41 38 38 38 37 35 33 31 30 30 31 31 29 28 29
1 0 1 1 4 5 2 1 1 3 5 7 7 8 8 7 8 7 6 7 7 7 8 11 12 7 7 12 15 14 13 13 14 15 16 17 20 19 16 16 17 17 17 18 20 21 20 22 26 30 32 35 37 36 34 33 36 39 40 41 41 43 42 40 38 40 43 43 42 41 39 38 38 38 37 36 35 33 32 31 30 30 30 29 28 28
1 2 3 2 3 3 1 1 1 6 9 8 8 9 8 6 7 6 5 6 7 9 10 9 6 5 9 13 14 14 15 15 15 16 16 18 21 18 15 16 18 18 19 21 22 21 20 20 25 30 33 34 34 33 34 37 41 43 43 43 43 42 41 39 40 41 41 39 38 36 36 37 38 36 33 31 32 33 33 32 31 30 29 28 28 27
1 2 3 2 3 3 3 6 4 5 6 4 5 6 6 6 7 7 7 7 7 7 6 4 4 6 10 13 15 17 18 17 15 14 16 19 19 15 15 17 19 20 21 21 20 20 20 23 28 31 32 33 34 36 39 41 42 42 42 43 43 42 40 39 39 39 40 40 37 33 34 36 36 33 32 33 35 37 37 36 34 33 32 29 28 27
0 2 3 1 1 4 6 9 6 0 1 1 3 5 5 6 8 9 8 7 7 7 5 5 6 10 13 14 15 17 17 17 16 16 17 16 12 13 16 18 19 20 20 18 18 21 24 28 31 32 34 36 38 40 41 40 38 39 41 42 42 40 38 37 37 40 42 41 36 31 33 36 36 35 36 37 37 36 36 35 34 33 32 31 28 27
1 2 3 1 1 3 6 6 4 2 1 4 5 7 6 5 8 11 8 5 8 9 9 9 10 12 14 14 15 15 16 18 18 18 16 11 12 15 17 19 20 19 17 17 19 22 28 31 33 35 39 40 40 40 41 40 39 40 41 40 39 37 35 34 38 43 46 43 37 32 31 35 37 36 36 35 35 35 35 34 34 33 32 30 29 28
2 2 2 1 1 2 3 4 3 1 2 3 6 10 9 7 11 15 11 7 8 9 10 10 11 12 15 17 15 14 15 17 17 14 9 10 15 16 16 18 19 18 18 20 22 25 31 35 35 37 39 40 40 40 41 40 40 41 42 40 36 33 32 37 44 48 47 41 36 31 31 35 37 36 36 37 37 37 37 35 33 30 28 27 26 27
2 2 2 1 1 1 2 4 2 3 3 6 7 8 8 7 8 11 10 4 6 9 10 11 13 16 18 17 15 15 16 17 14 8 5 12 17 19 20 20 20 22 26 28 29 31 33 34 36 38 38 39 39 38 38 39 41 41 41 37 32 31 36 43 46 45 43 38 32 31 34 36 36 36 37 38 36 34 33 31 29 27 26 26 25 24
2 2 1 1 1 3 2 4 2 2 1 4 6 6 6 6 8 10 9 3 5 11 13 15 17 18 18 17 17 17 16 14 12 9 10 15 19 21 23 25 27 28 29 30 34 36 34 34 36 38 38 38 38 37 37 39 40 40 38 33 32 37 43 44 40 39 40 37 33 34 37 36 36 37 39 38 36 34 33 33 32 31 31 29 27 24
2 2 1 0 2 3 3 2 3 2 1 4 7 8 6 7 11 11 6 3 5 13 16 17 18 18 17 18 18 16 12 10 11 12 14 19 22 22 22 26 30 30 29 33 37 37 36 37 38 39 38 37 37 39 40 39 39 39 35 33 35 39 41 39 38 39 39 37 38 43 42 39 39 42 42 40 38 37 37 37 36 36 36 34 30 27
5 4 2 3 3 4 4 2 2 0 2 6 9 8 8 10 11 8 5 4 9 14 14 14 17 17 17 17 15 12 9 9 12 15 18 23 26 27 26 27 28 29 32 37 39 37 38 39 38 38 38 38 39 41 41 40 39 37 36 36 37 37 37 39 41 40 37 37 43 47 46 45 46 45 43 43 43 43 41 39 38 38 37 35 33 31
4 4 3 5 4 5 4 3 2 1 2 8 10 8 12 12 6 3 5 7 12 16 14 13 15 15 16 15 13 10 10 11 14 19 22 24 25 27 30 30 29 31 34 36 36 37 38 38 37 37 37 38 40 41 41 40 38 37 38 38 37 37 39 41 40 38 38 43 48 49 49 49 46 42 42 44 44 42 38 35 36 37 36 36 36 33
4 3 3 4 4 4 3 3 3 1 3 10 11 8 11 10 3 3 7 8 11 15 14 13 13 13 14 14 12 11 14 17 18 20 21 21 22 25 29 30 32 34 36 34 34 36 37 37 38 39 39 39 40 39 39 38 37 37 38 38 38 40 41 39 38 41 46 49 50 48 45 42 40 39 41 41 38 36 34 33 34 36 36 36 36 35
2 2 3 4 3 2 3 3 3 1 4 13 13 8 8 6 3 6 9 9 9 12 12 12 12 12 13 14 14 16 18 20 19 18 18 20 22 24 27 29 32 34 35 34 35 37 37 37 38 39 40 40 40 39 39 38 37 38 38 39 40 40 39 39 43 47 49 47 44 42 39 39 43 45 44 42 40 39 39 37 36 36 35 35 35 35
2 1 2 3 2 2 2 3 3 2 4 10 11 7 6 6 6 8 10 10 9 9 10 10 11 12 14 15 17 19 19 19 19 18 18 19 22 25 28 30 32 33 34 35 36 37 37 37 38 40 40 39 39 40 40 38 37 39 40 40 41 41 42 45 48 47 43 41 41 42 43 45 48 46 44 43 42 41 39 38 37 37 36 35 34 31
2 3 1 3 2 3 3 3 4 4 5 8 8 6 7 9 10 10 9 9 8 9 9 10 11 13 15 16 17 17 16 17 19 18 17 19 22 26 29 30 31 32 33 35 37 37 37 37 37 39 39 40 41 41 39 37 37 38 40 41 43 44 45 46 45 43 41 41 43 44 46 47 47 44 43 41 40 38 36 36 35 35 33 32 30 28
3 6 4 3 3 5 3 1 6 7 9 11 9 7 9 11 10 9 8 7 8 9 10 10 10 12 14 15 16 15 14 16 17 17 18 20 24 28 30 31 31 32 33 35 37 38 39 37 36 36 39 41 42 41 39 38 37 36 38 42 44 45 45 45 44 44 43 42 43 45 46 45 44 42 41 39 37 36 35 34 33 32 31 29 27 26
4 7 5 3 5 5 3 4 9 9 11 12 9 7 9 10 9 8 6 6 8 10 12 12 13 14 16 16 15 15 16 16 16 16 18 20 24 28 30 30 31 33 34 35 37 39 38 36 35 36 37 39 41 41 40 39 38 38 40 43 44 45 46 46 45 43 42 42 44 45 44 41 39 38 38 37 35 33 32 32 31 29 27 25 22 23
4 5 5 5 5 5 5 5 10 11 10 8 6 7 9 10 10 10 11 11 12 14 17 18 18 17 16 16 16 17 16 15 15 16 17 20 24 27 29 30 32 34 35 36 37 38 36 35 36 37 37 38 40 41 40 39 39 40 42 44 45 46 46 45 43 42 43 44 44 42 39 37 36 36 35 34 33 31 30 30 29 27 26 24 23 26
5 4 4 6 6 5 5 8 13 12 7 3 6 8 9 9 9 11 14 16 15 16 18 20 20 19 17 18 20 19 15 16 19 21 20 22 25 27 29 31 32 33 35 37 37 36 35 34 35 36 37 38 40 40 41 40 41 42 44 45 45 45 45 44 43 43 42 41 39 37 36 35 35 34 33 32 31 30 29 29 29 28 27 28 30 30
4 4 5 5 5 4 6 9 12 11 7 6 10 12 11 10 11 11 13 15 14 15 16 17 18 19 18 18 20 19 16 17 23 25 24 24 26 28 30 32 32 33 35 36 36 36 36 36 35 35 36 38 38 38 39 40 42 44 45 45 44 44 44 44 44 41 38 36 35 35 35 34 33 33 32 29 28 29 29 30 30 28 29 32 32 29
4 4 6 5 5 7 9 10 10 9 9 10 12 12 10 13 13 12 13 15 15 17 19 17 16 16 17 18 20 20 20 21 25 26 25 25 27 30 31 31 31 33 34 34 34 35 37 38 37 37 37 39 38 37 38 40 41 43 45 45 44 44 45 45 42 38 35 35 35 35 35 33 32 31 29 28 28 28 28 28 28 27 27 28 27 26
Wind_Direction
58 263 230 244 283 284 118 212 316 4 44 329 305 271 260 263 267 269 136 140 271 258 245 246 261 273 280 279 282 288 285 289 18 47 44 46 47 49 50 43 38 33 45 60 53 65 87 104 109 112 130 172 218 235 243 246 249 252 252 252 251 252 253 251 245 241 239 237 236 236 237 239 241 243 244 245 245 243 243 244 244 243 243 243 244 247
67 255 251 304 352 20 42 25 23 8 340 283 262 257 264 257 261 328 107 177 203 271 270 279 282 280 280 279 285 291 284 35 48 50 52 51 56 62 60 57 59 53 71 92 110 102 88 86 100 111 119 117 136 308 297 282 279 274 268 264 263 260 257 255 253 247 243 243 243 243 244 245 246 245 245 246 247 246 244 243 242 240 240 240 241 243
227 228 271 13 343 17 57 37 29 329 268 250 236 246 266 257 251 65 91 187 168 159 272 290 294 283 281 280 291 333 54 63 56 64 59 49 56 63 58 51 54 55 54 59 79 102 104 107 112 108 97 83 59 39 22 351 332 314 298 289 283 276 268 263 262 256 251 251 252 253 254 253 252 251 252 253 252 250 245 242 240 238 236 237 239 240
253 204 36 348 321 324 40 85 17 256 236 228 222 230 256 298 13 100 196 220 196 212 253 293 301 282 280 281 4 56 73 75 73 79 70 58 64 68 64 54 52 52 51 55 57 71 82 85 81 72 67 65 57 48 35 20 8 350 333 320 306 295 285 276 271 267 262 259 257 259 260 257 256 256 256 256 252 246 242 239 236 235 234 235 238 239
261 60 14 307 289 298 283 194 211 251 264 236 206 228 266 358 32 252 322 321 277 245 249 310 304 274 267 224 116 87 94 96 96 97 85 73 73 74 72 64 60 59 56 60 58 55 60 65 67 62 59 60 58 48 35 28 20 6 351 334 319 308 297 286 278 274 271 266 259 259 261 258 255 254 253 250 245 239 237 237 234 234 235 234 237 239
261 17 326 275 257 312 302 273 231 217 281 285 212 7 358 44 24 318 343 342 319 307 201 20 308 281 305 127 138 136 118 106 100 94 85 74 66 65 68 66 64 62 59 60 62 62 60 60 61 58 54 53 51 43 32 27 19 13 5 352 339 327 311 297 285 278 274 269 262 258 258 256 253 252 251 248 247 244 241 240 238 238 237 237 237 237
182 145 280 287 293 324 279 274 273 121 316 294 285 3 20 42 1 308 334 358 315 300 249 179 232 277 323 312 159 139 114 105 92 79 78 75 71 67 62 62 60 53 52 54 54 54 55 54 50 49 46 45 42 33 23 13 5 4 2 357 351 341 330 314 296 283 276 269 264 260 259 258 256 255 257 257 257 255 252 249 245 241 239 238 237 235
137 144 244 285 289 282 261 272 327 46 355 256 237 328 353 309 268 268 293 224 242 299 281 224 199 235 297 283 149 128 113 103 90 80 80 74 69 66 60 60 58 50 42 41 44 39 44 48 43 42 42 39 36 26 19 10 359 350 346 348 348 341 336 327 311 293 282 273 267 264 264 264 262 261 264 266 266 264 260 253 247 243 239 237 236 234
217 136 208 203 265 262 256 313 343 348 351 208 233 271 288 267 262 272 265 249 265 306 290 232 169 185 276 231 123 117 114 107 95 89 84 74 68 64 58 58 59 58 46 39 45 38 40 48 43 38 34 29 27 20 16 10 360 347 337 339 339 334 331 327 320 306 290 280 272 269 267 268 268 268 269 271 269 267 264 256 247 239 234 233 232 232
22 28 325 6 239 252 356 94 337 323 261 258 285 257 257 249 232 237 231 252 269 253 270 223 160 196 278 183 135 110 108 117 114 98 87 80 73 66 63 64 62 63 54 40 44 40 36 41 35 27 19 11 8 2 358 357 355 348 337 332 331 329 325 321 319 313 300 288 277 271 270 269 272 274 275 276 274 269 266 260 247 235 230 229 229 230
96 6 308 335 335 339 334 233 184 329 330 329 297 273 276 252 168 161 224 236 270 256 289 231 163 171 310 232 135 97 102 126 122 103 88 81 73 70 70 71 67 64 59 42 36 33 26 20 10 0 353 349 345 342 339 340 344 343 338 332 328 328 325 319 318 313 305 296 282 275 273 272 274 278 279 278 277 274 269 261 248 237 232 231 231 232
114 251 274 34 338 321 298 251 146 355 325 302 282 287 309 305 124 120 218 181 195 259 308 345 12 84 222 251 66 71 55 85 104 98 85 75 73 77 69 68 68 64 57 42 27 17 8 356 342 337 338 334 328 326 324 324 330 333 334 330 325 326 327 323 322 318 310 305 293 283 279 277 278 280 280 279 278 278 274 266 256 243 237 235 235 235
144 248 131 89 326 353 292 284 37 331 240 245 277 323 344 328 291 248 234 202 197 214 254 10 18 305 240 221 129 115 78 78 88 85 82 72 62 67 68 67 64 57 47 31 12 355 351 346 335 327 325 323 319 317 316 318 320 321 325 326 322 323 324 323 326 324 318 314 307 297 287 283 283 283 281 281 280 280 277 272 265 252 243 239 237 236
323 302 289 140 29 359 328 331 6 338 317 293 300 16 9 343 311 287 272 278 284 243 268 24 54 249 266 342 114 114 95 89 88 87 90 77 54 54 73 74 60 50 35 17 3 346 342 342 336 325 313 310 313 315 317 319 321 320 320 322 321 321 320 320 324 324 322 323 321 314 304 295 290 286 285 284 282 282 280 275 270 263 254 246 242 241
293 277 304 22 278 301 336 58 148 268 314 295 184 67 27 239 279 278 315 324 302 292 292 14 65 249 265 69 99 98 95 94 92 97 100 80 53 51 72 67 53 43 19 1 356 339 335 341 338 327 312 304 309 318 323 328 327 323 320 320 319 318 318 318 319 320 322 324 321 318 316 311 305 298 292 289 286 283 281 278 274 269 263 256 250 249
246 240 331 13 270 287 16 95 149 343 325 293 25 44 272 226 261 285 303 283 271 284 289 196 234 286 82 97 98 102 106 100 83 68 68 66 41 52 72 56 41 30 4 349 342 328 336 346 343 332 318 307 314 328 336 337 332 327 322 318 315 317 320 321 319 316 313 311 306 306 310 313 314 310 301 296 292 287 283 279 276 271 267 264 258 253
315 274 189 148 283 354 35 349 347 39 8 309 11 351 236 202 162 303 295 282 266 277 263 176 226 327 87 101 133 132 116 91 74 47 48 56 36 40 54 40 29 14 348 334 333 333 346 349 344 335 323 314 329 344 344 340 335 330 324 319 320 324 325 323 318 312 306 301 293 286 289 298 309 311 305 300 295 291 286 280 276 274 269 265 261 256
334 284 240 129 317 329 47 313 329 27 5 344 272 282 280 190 111 84 305 311 301 267 252 177 284 285 279 287 206 147 92 56 56 41 39 44 31 27 30 27 17 353 338 338 343 347 348 347 343 334 323 320 346 353 349 345 340 336 331 328 330 330 326 322 319 315 313 310 300 288 283 284 290 299 303 302 297 292 288 282 276 274 270 265 260 256
337 295 289 330 311 164 132 327 331 334 318 301 263 280 355 72 338 300 314 321 305 281 280 286 295 300 317 20 134 110 64 43 37 28 32 31 21 19 23 16 359 350 347 347 349 348 343 342 339 330 324 341 5 360 352 345 340 338 336 335 335 333 331 330 329 330 330 327 321 312 302 293 285 286 295 301 300 294 287 282 277 273 270 266 259 254
327 231 268 298 318 97 117 164 25 5 311 343 328 331 71 137 191 206 258 248 261 275 283 297 334 356 16 103 111 84 62 56 36 21 25 24 14 11 10 1 355 353 352 350 349 345 340 337 333 330 338 5 5 354 346 339 336 337 338 338 337 334 332 331 332 332 331 328 325 320 314 307 298 288 286 294 299 295 287 282 277 273 270 266 258 253
311 220 258 306 345 6 296 206 43 54 80 34 352 142 27 258 171 4 299 188 233 275 284 313 316 24 51 77 85 69 66 71 49 30 20 13 8 5 1 356 354 352 350 350 347 341 338 334 331 333 352 2 354 347 343 339 338 338 337 335 332 328 325 324 323 323 320 318 316 314 312 309 303 294 286 286 290 291 287 281 275 271 267 262 256 251
323 270 289 309 293 302 312 222 359 5 55 55 359 303 35 12 35 337 296 41 37 297 280 309 292 311 43 79 78 59 65 68 48 35 18 5 1 359 356 355 353 350 348 349 345 339 334 331 332 342 357 357 352 348 344 341 338 335 333 330 326 321 315 314 315 314 313 311 311 310 308 306 303 295 285 279 282 284 283 278 273 268 263 259 254 249
342 280 286 282 267 292 58 182 337 338 336 61 47 19 26 27 60 339 286 336 13 308 327 291 266 295 33 85 63 33 38 48 37 28 12 359 358 357 354 354 352 349 349 346 337 332 335 340 348 356 356 352 349 345 341 338 335 331 328 324 318 310 306 306 307 307 309 311 313 312 308 303 300 295 284 276 276 277 275 274 270 264 259 256 253 249
342 237 255 273 263 70 79 230 311 339 353 55 65 34 36 54 72 119 243 299 342 263 267 260 251 259 346 46 38 31 36 34 21 15 7 357 356 356 352 350 349 349 345 335 328 337 351 358 358 354 349 345 342 338 336 334 331 330 329 326 321 317 315 314 311 308 308 310 311 311 308 303 299 293 283 275 273 272 271 270 266 260 255 253 251 248
328 271 2 321 301 347 24 342 344 350 5 32 50 45 53 63 54 32 246 16 261 236 240 255 255 254 335 356 16 32 31 17 8 9 4 357 353 352 349 347 348 345 334 326 335 357 2 359 353 347 342 337 333 331 332 333 332 331 330 329 329 326 323 320 316 311 308 307 306 307 307 305 301 294 284 277 275 273 270 268 265 259 254 251 249 246
302 291 337 331 303 315 327 325 343 352 346 350 62 60 46 49 53 9 316 27 259 328 353 281 272 320 344 352 6 17 13 4 2 2 357 354 351 347 345 345 344 337 326 331 356 2 357 352 345 340 334 331 331 334 336 334 329 327 326 326 326 323 319 317 313 307 306 305 305 308 311 313 311 304 295 288 284 280 274 268 263 259 255 252 247 244
308 292 288 264 256 275 295 294 320 355 334 318 19 53 66 79 71 54 358 282 297 334 328 287 324 333 334 350 6 8 4 359 357 354 350 349 348 344 342 340 336 330 330 350 2 355 349 346 340 336 334 335 336 335 332 329 326 324 324 324 322 319 316 315 314 313 314 315 316 318 320 320 316 310 304 299 294 287 277 266 261 258 256 253 248 244
305 285 315 310 275 288 303 298 310 333 319 321 14 27 58 105 96 78 4 294 321 330 288 329 349 329 324 357 10 1 357 354 351 349 347 345 342 339 337 333 332 338 349 355 352 346 345 343 340 338 337 334 331 329 329 327 325 323 323 323 324 323 323 325 328 327 326 324 323 323 321 317 311 308 308 306 301 292 277 264 260 260 259 256 253 252
334 279 359 23 297 290 283 279 286 299 319 36 42 21 30 76 108 107 255 293 327 312 287 326 334 316 330 7 3 355 355 349 346 347 344 341 339 335 332 332 339 350 352 348 345 346 347 343 339 336 331 329 328 328 327 324 323 325 327 328 329 331 331 331 329 325 322 320 319 317 314 310 306 304 306 305 302 296 284 270 266 266 265 259 255 254
64 263 285 213 272 282 276 270 269 230 92 62 51 27 24 28 31 45 7 334 344 318 302 319 314 310 2 10 352 351 351 344 345 344 343 343 339 333 331 336 347 349 345 344 347 348 344 337 333 332 330 331 330 328 327 328 331 333 332 330 328 328 327 325 321 319 318 316 314 313 310 307 304 303 303 302 298 294 287 277 270 268 266 261 255 252
84 41 301 243 281 299 292 245 223 125 96 72 55 30 22 24 24 22 4 350 343 314 308 315 307 313 12 0 345 344 345 345 346 345 346 344 334 330 337 345 346 344 344 347 347 341 336 334 335 335 334 332 331 330 333 336 336 332 328 326 324 322 322 321 321 319 317 314 313 313 312 311 309 305 304 305 303 300 296 290 283 278 271 264 259 254
73 323 313 326 314 301 210 278 13 95 88 71 53 26 13 25 26 9 346 333 324 317 322 329 329 340 349 344 339 339 343 346 344 345 345 334 326 333 349 348 344 345 346 345 340 335 334 338 339 337 334 332 333 334 336 335 332 328 325 324 322 321 322 322 322 319 316 314 315 316 317 316 313 311 311 314 315 313 311 308 305 301 290 276 265 258
41 316 310 342 319 289 310 330 345 98 97 57 40 21 8 25 20 358 337 327 334 349 347 343 351 341 339 345 343 339 341 340 339 344 336 323 324 341 351 349 348 347 342 338 336 336 338 339 337 334 332 333 334 332 330 329 327 325 324 324 323 323 324 324 323 321 318 315 313 315 318 317 314 316 319 319 317 314 312 310 308 306 300 289 276 264
256 282 284 318 304 288 313 323 318 230 131 76 56 26 14 32 21 353 329 334 13 36 21 347 347 346 348 350 343 336 335 333 333 335 325 321 337 354 352 350 347 339 335 337 339 339 338 335 333 332 331 330 328 326 325 325 323 323 324 324 322 322 323 325 325 323 319 313 310 312 318 318 315 314 314 312 310 307 305 304 303 302 300 295 286 274
285 283 287 285 219 272 308 328 331 337 142 141 95 38 25 33 12 349 335 11 43 35 12 356 350 348 347 344 340 336 331 327 327 322 318 336 6 1 349 343 336 332 336 340 338 337 335 333 332 331 330 328 327 327 326 326 325 325 323 321 319 319 321 324 323 320 315 309 306 310 316 317 313 310 309 308 306 305 303 300 298 295 294 294 291 282
294 296 297 286 268 289 329 343 348 53 91 89 49 27 18 10 3 352 345 19 44 27 9 355 341 344 348 343 339 336 326 321 318 310 319 5 8 353 340 335 334 337 339 336 335 335 333 331 330 330 329 328 328 327 326 325 327 325 321 317 315 316 321 324 323 318 311 304 302 309 316 316 311 307 306 305 302 300 297 294 293 295 299 303 304 300
312 316 340 343 351 65 340 312 282 150 78 31 20 11 6 4 358 339 319 338 48 27 5 352 343 346 348 340 333 332 327 321 312 307 356 8 355 342 336 336 338 336 332 331 332 331 329 329 329 329 328 326 326 325 324 324 325 322 316 315 318 323 327 326 320 316 311 307 307 314 316 312 307 305 306 305 301 298 298 301 307 312 314 312 312 312
301 306 30 21 10 55 10 317 307 219 224 28 8 346 356 353 328 314 295 278 41 19 3 356 349 343 339 334 332 334 333 324 313 320 349 350 342 339 337 336 334 331 330 332 331 328 329 331 331 329 327 325 324 324 325 324 324 321 318 320 327 328 325 321 316 315 316 315 318 324 322 316 314 314 314 312 310 310 312 316 318 317 315 311 306 306
330 284 206 277 340 27 20 318 308 286 189 40 353 336 352 338 315 310 287 261 9 11 3 352 340 333 334 334 334 336 337 328 317 321 336 338 335 337 336 330 329 331 334 335 332 329 331 333 332 329 327 325 325 326 328 327 327 325 322 324 326 325 321 319 317 316 315 316 323 328 326 322 320 317 314 312 312 312 312 312 312 311 309 306 301 299
12 336 10 39 360 355 351 300 296 32 74 14 343 335 343 327 315 315 300 309 352 358 355 345 335 333 337 335 335 337 334 324 316 317 326 329 328 330 329 326 329 337 339 335 331 330 331 332 331 330 329 328 328 329 330 329 327 325 323 323 323 321 319 318 315 314 315 321 327 327 322 319 315 311 308 307 306 305 306 307 308 308 305 301 297 294
18 344 26 52 13 341 332 310 309 143 77 357 341 347 351 336 321 331 322 327 340 337 338 349 346 340 340 337 334 330 321 317 315 315 321 325 324 324 327 329 336 340 336 331 330 332 331 329 329 329 328 328 328 328 329 328 325 324 324 323 321 320 319 317 314 317 323 325 324 320 316 313 311 308 307 306 302 299 301 304 307 306 304 300 296 292
13 337 14 48 19 338 314 308 308 191 69 8 350 1 12 1 344 336 330 330 336 333 339 352 349 342 342 337 329 321 316 316 316 315 319 324 325 326 330 336 339 335 331 330 331 332 331 328 328 328 328 328 329 328 329 328 325 324 323 322 320 320 318 318 320 324 325 322 317 314 311 312 315 317 317 314 311 308 307 306 305 302 300 298 297 294
357 332 358 12 10 340 316 327 333 291 20 12 3 9 30 25 341 326 329 330 340 345 346 345 342 343 342 332 324 322 320 318 318 319 321 326 329 330 332 337 335 330 329 331 332 333 332 329 327 327 327 328 330 330 330 329 326 324 323 321 320 320 320 323 326 323 319 315 314 314 316 319 322 320 316 313 312 309 306 303 300 297 295 294 293 290
3 32 12 343 5 32 317 324 15 15 3 14 13 7 10 3 345 340 337 333 343 352 344 334 335 341 340 330 324 323 321 320 321 325 327 330 332 331 332 333 332 329 329 331 331 331 332 329 327 326 327 329 331 330 331 330 327 324 323 322 322 323 323 323 321 317 314 316 319 320 321 320 317 313 309 307 304 301 298 297 294 291 289 287 284 282
27 27 327 261 322 351 279 284 27 31 6 10 12 360 355 353 351 353 350 340 341 344 337 331 334 337 337 331 324 320 318 320 322 327 331 331 329 330 330 329 329 329 330 330 329 329 330 329 327 326 327 329 331 331 330 331 328 324 322 323 324 323 322 321 320 319 320 322 322 320 319 316 313 311 308 306 303 299 295 294 293 290 287 285 280 278
59 22 330 268 350 350 302 30 42 18 356 356 353 352 1 357 351 358 1 350 343 338 331 331 334 335 334 330 324 319 318 321 324 328 331 328 327 328 327 326 327 330 331 330 329 329 329 328 327 327 327 329 331 331 331 330 329 325 322 323 324 324 323 324 324 323 322 321 320 319 317 314 312 311 309 307 306 303 299 296 294 290 287 284 281 280
50 26 348 332 8 343 302 57 44 9 343 339 336 349 3 355 345 355 3 350 342 337 331 330 333 333 331 328 323 319 320 326 328 328 328 327 326 326 326 326 328 329 330 330 329 328 328 328 327 327 327 328 330 331 330 329 329 327 326 326 327 327 326 325 323 322 322 321 320 318 315 312 310 310 310 309 306 302 299 297 294 290 289 290 292 295
345 360 347 344 347 305 283 360 13 347 322 321 339 359 355 342 341 352 349 338 335 336 333 331 331 332 331 327 323 320 322 328 329 326 326 326 325 324 325 327 327 328 329 328 327 328 329 328 326 327 328 328 329 330 329 328 328 329 330 330 329 328 326 324 324 323 322 320 318 315 313 312 310 309 307 305 303 300 298 297 295 294 298 299 297 296
317 336 340 326 314 293 297 341 349 336 311 316 358 355 343 339 348 350 341 334 333 334 333 330 331 333 331 326 324 323 324 325 326 327 327 326 324 324 325 325 326 327 327 326 325 326 327 326 326 327 328 328 328 328 328 327 328 330 331 331 330 329 327 326 326 324 321 318 316 314 314 313 311 309 306 303 302 302 301 301 301 303 305 303 297 292
341 354 342 325 318 316 324 340 345 334 308 315 339 341 339 350 356 347 338 336 336 337 336 332 330 332 331 328 327 327 325 323 325 327 326 324 323 323 323 324 326 326 325 324 324 325 325 325 326 328 328 327 327 327 326 326 327 330 332 332 331 331 329 328 326 323 320 319 317 316 316 315 312 311 309 309 310 311 310 310 310 310 307 302 300 303
6 351 340 333 315 309 321 336 340 323 306 316 328 332 343 356 353 339 334 337 339 341 341 335 331 331 331 331 332 329 324 323 325 327 325 322 322 322 322 323 325 324 324 325 325 325 326 327 329 329 328 327 327 326 326 327 328 329 331 332 332 332 330 328 326 322 321 321 319 318 318 316 313 314 315 315 316 315 313 312 312 312 311 306 307 317
Height
804 808 811 809 804 798 797 797 797 797 800 803 805 808 809 811 806 796 804 811 807 808 805 798 797 792 786 779 772 771 769 769 772 775 779 782 784 785 787 789 790 791 793 793 795 797 800 802 804 806 807 807 808 808 809 810 810 811 811 811 812 812 812 811 811 811 810 810 809 809 809 808 807 807 807 806 806 806 806 806 806 806 805 805 805 805
807 812 810 805 803 801 800 800 800 801 801 803 807 809 808 808 803 798 805 811 808 808 802 795 795 792 785 778 772 770 769 773 778 781 785 786 787 788 790 792 793 793 794 795 797 800 803 804 805 806 807 808 808 809 809 809 810 810 810 810 810 811 811 810 810 810 809 808 808 807 806 806 806 805 804 803 803 803 803 803 803 803 802 803 803 803
809 811 809 806 805 803 803 803 803 804 805 806 807 810 810 803 798 802 808 808 807 808 803 796 797 794 784 777 773 771 773 779 783 785 789 789 789 792 793 795 795 796 797 798 799 802 804 805 806 807 808 808 809 809 810 810 810 810 810 810 810 810 810 810 809 808 808 807 807 806 806 805 805 803 803 802 801 801 800 800 800 800 799 799 800 800
809 808 810 809 807 805 805 806 807 808 807 808 807 808 807 799 798 805 808 806 805 804 801 799 802 799 786 778 776 776 778 783 786 788 790 792 793 795 797 798 799 801 802 802 803 804 806 806 807 808 809 809 809 810 810 810 810 810 810 810 809 809 809 808 808 808 807 807 806 806 805 804 803 802 802 801 800 799 798 798 797 797 796 796 796 797
807 810 813 811 809 807 806 807 808 810 808 804 804 805 803 801 803 806 805 804 802 800 801 803 805 796 781 778 781 780 782 785 787 789 791 794 795 797 799 801 803 804 804 805 806 807 807 808 809 809 810 810 810 810 810 810 810 810 810 809 809 808 808 807 807 806 806 805 805 804 803 803 802 801 800 799 798 797 796 795 794 793 793 793 793 793
807 813 816 812 810 808 808 809 806 808 809 803 805 809 807 806 808 807 807 808 806 804 803 806 808 793 773 773 782 783 783 786 788 790 794 797 798 800 802 803 805 806 807 807 808 809 809 810 810 810 810 810 810 811 811 811 810 810 809 809 808 807 806 806 805 805 805 804 803 802 801 800 799 798 797 796 795 794 793 792 791 791 790 790 790 790
811 815 816 813 810 809 810 810 804 805 810 807 809 813 811 810 811 811 810 812 812 806 802 804 809 803 784 776 779 782 785 789 791 793 797 800 801 803 804 805 806 807 808 809 809 810 810 810 811 811 811 811 811 811 811 811 810 809 809 808 807 806 805 805 804 803 803 802 801 800 799 798 797 795 793 793 793 792 791 790 789 788 787 787 787 787
814 815 815 813 811 810 810 810 807 807 811 810 812 815 813 811 812 811 812 815 813 807 803 800 803 811 802 783 776 781 788 792 796 799 800 801 803 804 805 806 808 809 809 810 810 811 811 811 812 812 812 812 812 811 811 810 810 809 808 807 806 805 804 803 802 802 801 800 799 798 797 796 795 793 791 791 791 789 788 787 786 785 785 784 784 784
812 813 813 813 812 811 810 812 811 809 810 811 815 816 813 812 812 811 814 816 812 811 810 799 798 811 803 784 778 781 789 797 800 802 803 804 806 806 807 808 809 810 811 811 812 812 812 812 812 812 812 812 812 811 811 810 809 809 808 807 805 804 803 802 801 800 799 798 797 796 795 794 793 792 790 789 789 788 786 784 783 782 782 782 781 781
813 815 814 812 812 812 813 814 813 811 811 813 816 815 812 813 813 814 816 816 813 815 812 798 798 809 798 783 783 784 789 799 802 803 805 806 807 808 809 810 811 812 813 813 813 813 813 813 813 813 813 812 812 811 810 809 809 809 807 806 805 803 802 801 800 799 798 797 796 795 794 792 791 790 789 788 787 786 785 783 781 780 780 780 779 779
815 818 817 815 815 814 814 814 814 814 814 814 814 812 809 810 813 816 814 813 815 813 808 799 796 804 801 789 789 791 792 798 801 804 807 807 809 810 810 811 812 813 813 814 814 814 814 814 813 813 812 812 811 810 809 809 808 808 807 806 804 803 802 800 799 798 796 795 794 793 792 790 789 788 787 786 785 784 783 782 780 779 778 778 778 777
816 817 816 818 818 817 815 814 816 818 816 816 814 811 809 806 810 816 814 815 818 810 806 804 798 803 805 795 794 799 798 798 802 806 808 809 810 811 811 812 812 814 814 814 815 814 814 814 813 812 812 811 810 809 809 808 807 807 806 805 803 802 801 799 798 797 795 794 793 791 790 789 788 787 786 785 783 782 781 780 779 778 777 777 776 776
814 817 818 819 820 819 816 813 815 817 816 815 813 811 811 807 806 811 812 809 810 808 808 808 805 805 800 791 796 802 801 803 805 808 810 811 811 811 812 813 813 814 815 815 816 815 814 814 813 812 811 810 809 809 808 807 806 806 804 803 802 801 800 798 797 796 795 793 792 791 789 788 787 786 785 783 782 781 780 779 777 776 775 774 774 774
811 817 818 818 818 820 818 814 813 813 814 814 811 812 815 814 814 815 808 800 801 807 809 809 810 806 796 792 799 802 803 806 808 810 812 811 812 812 812 814 814 815 816 816 816 815 814 813 812 811 810 808 808 808 807 807 806 805 803 802 801 799 798 797 796 795 793 792 791 790 788 787 785 784 783 782 780 779 778 777 775 774 773 772 771 771
811 812 814 817 817 819 820 817 818 817 817 814 810 813 816 816 820 818 811 809 810 808 808 813 811 799 794 799 803 803 806 808 809 811 812 812 812 812 813 814 815 816 816 816 816 815 814 813 812 810 809 807 807 806 806 806 805 803 802 801 799 798 796 795 794 793 792 790 790 789 787 786 785 783 781 780 778 777 776 774 773 772 771 769 768 768
809 806 815 823 820 820 821 820 822 819 816 814 811 814 817 816 817 815 812 813 814 812 810 812 804 793 798 806 804 806 809 808 811 811 811 813 812 812 814 815 815 816 816 816 815 815 813 812 811 810 808 806 806 805 805 805 804 803 801 800 798 797 796 794 793 791 790 788 786 785 784 784 783 782 780 778 777 775 774 772 771 769 768 767 766 766
815 809 817 824 821 823 824 823 824 820 816 815 814 816 818 819 818 817 815 809 811 817 810 800 797 796 803 809 807 807 808 809 812 812 812 813 813 813 814 814 816 816 816 815 815 813 812 811 810 809 807 805 804 805 804 804 804 802 801 799 797 796 795 793 792 790 787 785 783 781 780 779 779 779 778 777 775 773 771 770 768 766 766 765 764 764
823 817 816 819 820 823 827 826 824 825 823 818 817 819 819 819 817 818 822 817 816 819 805 792 796 796 796 806 811 808 809 812 813 812 813 814 814 815 814 815 816 816 815 815 813 813 812 811 810 809 807 805 804 804 804 804 803 802 801 799 797 795 793 792 790 788 786 784 781 779 777 775 775 775 775 774 772 771 769 767 765 764 763 762 762 761
824 822 818 818 819 822 827 826 822 825 828 822 821 822 818 820 820 818 823 825 824 824 811 797 797 795 795 805 813 811 812 815 814 814 816 816 817 817 816 816 816 815 815 814 814 814 813 812 811 809 806 805 805 805 804 803 802 801 800 798 797 795 793 791 789 787 785 783 781 779 776 773 771 770 770 770 769 768 766 764 762 761 760 759 759 759
823 825 821 818 820 822 824 821 816 820 826 825 824 823 820 822 823 820 821 824 827 827 819 809 804 802 802 805 809 812 813 816 818 818 818 818 818 817 816 816 816 816 816 815 815 814 813 812 810 808 806 805 805 804 803 802 800 799 798 797 796 794 792 790 788 786 785 783 781 779 776 773 770 767 766 765 765 764 763 761 759 758 757 757 756 756
824 824 821 817 820 819 817 819 817 816 819 821 821 821 821 820 819 821 820 818 822 823 822 822 817 807 803 805 808 812 814 817 820 820 820 819 819 817 817 818 817 818 818 817 817 815 814 812 809 807 806 805 805 804 803 802 800 798 797 795 794 792 790 789 786 785 783 781 779 777 774 772 768 765 762 760 760 760 759 758 756 755 754 753 752 751
828 826 824 821 819 813 814 824 826 820 818 818 817 817 819 819 820 827 828 822 824 826 827 834 831 814 804 806 809 812 814 817 819 822 823 822 821 820 820 820 820 820 820 819 818 817 814 812 809 808 807 806 806 805 804 803 800 798 796 794 792 790 788 785 783 781 779 777 775 773 771 769 766 763 759 756 755 755 755 754 752 752 751 750 748 747
836 832 831 826 819 816 822 829 829 827 822 820 821 819 818 819 822 830 835 833 834 833 829 835 836 820 807 806 809 812 815 819 822 824 826 825 823 822 822 822 822 822 822 821 819 817 814 812 811 810 809 809 808 806 804 802 800 798 795 792 790 786 784 782 779 777 775 773 771 769 767 765 762 759 755 752 751 750 749 749 748 748 747 745 744 743
839 832 831 825 814 818 829 830 827 828 823 819 822 824 825 828 830 834 836 839 843 839 832 837 836 819 807 807 812 817 822 824 825 826 827 826 825 824 825 825 824 824 824 822 819 817 816 815 814 813 812 811 809 807 804 802 800 797 794 792 789 786 783 781 778 775 772 769 767 765 763 760 757 754 751 748 746 745 744 744 744 743 742 741 740 739
838 826 829 829 820 819 823 822 823 825 821 819 823 831 836 836 837 838 837 841 844 835 829 838 835 818 809 811 815 822 827 828 828 828 829 829 828 828 828 827 827 827 825 822 820 819 818 817 816 815 814 812 809 806 804 802 800 797 794 792 789 786 783 780 777 773 770 767 763 760 758 755 752 749 746 744 742 741 740 739 739 738 737 736 735 734
841 828 830 834 832 829 825 822 825 825 824 822 825 836 841 839 840 841 842 847 848 839 837 841 834 823 818 818 821 827 830 830 831 831 831 832 832 831 831 830 830 828 825 822 821 820 819 818 817 816 814 812 809 807 805 802 799 796 793 790 787 784 780 776 773 769 766 763 760 757 754 752 749 747 744 742 740 738 736 735 734 733 733 732 731 729
844 834 834 833 832 833 829 826 826 827 830 829 830 837 841 843 846 845 847 851 851 852 851 841 835 835 830 827 833 837 837 838 837 836 835 835 834 834 833 833 831 828 825 823 823 822 820 819 818 816 815 812 810 808 805 802 798 795 791 788 785 781 777 773 769 766 763 761 758 755 753 750 748 746 743 740 737 734 732 730 730 729 729 728 727 726
845 839 840 838 834 833 832 830 828 829 832 832 834 839 841 846 849 849 853 852 851 859 855 838 837 843 836 837 846 846 843 844 843 841 840 838 837 836 835 833 830 828 827 826 825 824 822 820 820 818 816 813 810 807 804 800 796 793 790 786 783 779 775 772 769 766 763 760 757 755 752 749 746 743 740 737 733 731 728 727 726 725 724 723 722 722
849 844 846 845 841 838 836 833 831 831 831 833 839 841 842 846 849 850 854 850 849 858 855 842 842 845 843 849 854 850 849 849 846 844 843 841 840 838 835 832 830 829 829 828 827 825 824 823 822 820 817 813 809 805 802 798 794 790 788 785 782 779 776 773 770 766 763 759 756 753 750 746 743 739 736 733 730 728 726 724 723 721 719 718 716 716
852 846 846 848 845 839 834 831 829 830 832 838 846 846 845 847 848 850 853 850 850 853 850 846 845 843 849 857 856 852 852 850 848 847 846 844 842 838 835 833 832 832 832 830 828 827 827 826 823 819 816 812 809 805 800 797 793 790 788 786 782 779 776 772 768 765 761 757 753 750 746 743 739 736 733 730 727 724 722 720 718 716 714 712 710 710
852 845 842 844 842 835 830 828 828 830 836 846 853 853 851 852 853 855 855 854 855 855 850 847 847 847 854 859 857 855 853 851 851 849 846 846 843 840 838 837 836 835 833 831 830 829 827 825 822 819 816 813 809 806 802 798 795 791 788 785 781 778 774 770 767 763 759 755 750 747 744 740 736 733 730 727 724 721 719 716 714 712 710 708 706 705
854 849 843 842 842 835 828 825 829 836 845 853 861 861 857 858 861 862 860 858 857 855 853 855 858 861 863 861 858 857 855 854 854 852 851 849 844 842 842 841 839 837 834 832 831 828 826 824 822 820 817 814 810 807 803 799 795 791 787 784 780 776 773 769 766 762 757 753 749 746 743 740 736 731 728 725 723 720 717 715 712 709 707 704 702 701
855 855 849 845 845 837 826 825 832 840 849 859 867 867 863 863 866 866 863 859 857 858 864 870 872 871 867 863 861 858 856 856 855 855 855 850 845 845 845 844 842 840 837 836 833 831 829 826 824 822 818 815 812 808 804 801 797 792 788 784 780 776 772 768 765 762 757 752 748 745 742 739 735 731 728 725 722 719 717 714 711 708 706 703 700 698
856 858 851 846 849 843 831 831 834 837 849 865 870 866 864 865 870 871 867 862 862 868 873 875 873 870 868 867 866 862 859 857 856 857 856 851 848 848 847 846 845 842 840 839 837 835 833 829 826 823 819 817 813 809 805 801 798 794 790 786 781 776 773 769 765 762 757 752 747 743 740 739 735 731 727 725 722 718 715 712 709 707 704 701 698 696
856 856 850 846 849 845 837 838 840 842 855 868 868 865 865 866 868 869 866 865 871 876 876 875 874 873 872 869 866 865 862 859 857 856 855 851 851 851 850 848 846 843 842 841 839 837 834 830 826 823 819 816 812 808 805 800 797 793 789 786 781 776 773 769 765 762 757 750 744 740 738 737 734 730 726 723 720 717 713 710 707 703 701 698 695 693
857 856 853 847 845 845 846 848 851 856 862 865 865 866 868 867 868 869 867 871 879 880 878 879 877 874 872 869 867 867 864 860 858 855 853 852 853 854 853 850 847 845 843 841 839 837 834 831 827 824 820 816 812 809 805 800 797 793 788 784 780 775 771 768 764 759 754 747 742 738 736 734 731 727 724 720 717 713 709 706 703 700 698 695 693 691
858 856 856 851 846 849 856 855 852 855 864 871 874 874 875 875 876 878 876 875 879 881 878 879 877 873 872 870 868 868 866 861 856 852 852 854 855 856 854 852 850 848 844 842 840 838 837 833 829 826 822 818 814 810 805 801 797 792 786 781 777 774 771 768 764 758 751 745 740 737 734 732 729 725 721 717 714 710 706 703 700 698 696 693 690 688
857 856 858 858 850 849 859 863 856 852 865 882 886 879 879 879 877 879 878 873 876 880 877 875 877 875 873 872 870 869 868 864 858 851 851 854 855 855 854 851 851 849 845 842 839 836 835 833 829 826 822 817 813 809 805 801 796 791 785 780 777 774 770 767 762 757 750 744 740 737 734 731 727 723 719 716 712 708 704 702 699 697 694 691 688 686
856 855 856 859 856 854 863 870 864 860 873 889 888 879 879 879 875 874 872 868 874 880 878 877 879 876 873 873 872 871 873 873 864 855 853 855 854 854 854 850 848 847 844 843 840 835 832 830 828 824 820 816 811 807 804 800 795 791 785 781 778 774 770 765 760 755 750 744 740 737 734 730 727 722 718 714 710 706 703 700 697 695 692 689 686 683
860 860 858 862 865 864 867 869 863 869 885 891 885 882 881 876 872 873 872 870 875 880 881 882 882 878 875 875 875 875 879 879 871 861 858 858 856 855 854 851 847 845 844 842 839 835 831 828 826 822 818 814 809 805 802 798 794 791 786 781 778 773 769 765 759 753 748 743 739 736 732 729 725 721 716 712 707 703 700 697 694 691 688 686 683 680
874 873 866 870 876 874 873 872 865 874 892 894 885 883 879 870 870 879 885 884 883 882 882 884 885 882 881 881 880 880 879 878 874 867 862 861 858 854 853 851 848 847 846 843 840 836 831 827 824 822 818 815 810 805 801 797 792 788 784 780 776 771 767 762 757 751 747 743 739 735 731 727 722 718 714 709 704 700 697 694 692 689 686 683 680 677
891 888 874 876 884 880 876 875 871 876 891 895 887 881 879 881 887 893 893 891 890 887 885 886 888 888 886 885 885 883 878 876 874 869 865 863 860 855 853 850 848 847 845 842 840 836 832 826 822 820 817 813 810 805 801 796 791 786 783 778 774 769 765 759 754 750 746 742 737 732 727 723 720 716 712 707 703 698 694 692 690 687 684 681 677 673
898 897 887 884 889 890 884 881 882 888 893 893 889 886 888 896 902 899 894 891 892 891 891 891 891 890 889 888 885 882 878 874 872 869 866 863 861 858 855 852 850 847 843 840 837 835 831 826 822 818 815 811 808 804 800 796 790 785 781 777 772 768 763 758 754 750 744 739 734 729 724 721 717 714 710 706 702 697 692 689 687 684 681 678 674 670
898 901 902 897 894 899 898 890 891 899 899 895 896 897 897 900 901 898 895 893 893 894 894 893 892 892 891 889 885 881 878 873 870 867 865 862 860 858 856 854 852 848 844 840 837 834 831 827 822 818 814 811 808 804 800 796 790 784 780 775 771 766 761 757 753 747 741 736 731 727 723 719 715 711 707 702 698 693 688 685 682 678 675 673 669 665
902 903 907 904 897 900 901 894 894 900 900 898 899 900 899 900 899 899 899 898 897 897 897 895 893 892 892 890 887 883 879 875 871 868 866 863 861 858 856 854 852 848 845 841 837 834 831 827 823 817 813 810 807 803 800 796 791 785 779 774 770 765 760 755 750 744 739 735 730 726 721 716 712 707 703 698 694 689 684 680 676 673 669 666 663 659
903 903 903 901 900 901 897 894 899 903 900 900 901 900 900 901 900 900 902 901 901 900 898 896 896 894 892 891 888 884 880 876 872 869 868 865 862 859 857 853 850 848 845 841 837 833 829 826 822 818 812 808 805 802 798 795 791 786 779 774 770 764 759 753 748 743 738 733 728 724 719 713 707 702 698 694 690 686 681 677 672 668 664 660 657 653
902 905 904 902 907 910 900 894 902 907 904 903 902 901 902 904 903 902 903 903 903 902 899 898 897 895 893 891 888 884 880 878 874 871 869 866 863 859 856 853 849 847 844 841 837 833 829 824 820 816 812 807 803 800 797 793 789 785 779 774 769 764 758 753 747 741 736 731 726 721 716 710 703 698 694 690 686 682 677 673 669 664 659 656 653 650
907 907 909 909 913 912 902 898 904 908 905 904 904 904 905 904 903 903 903 902 902 901 900 899 897 896 894 891 888 884 881 879 877 874 871 868 864 860 857 853 850 847 844 841 837 833 829 825 820 816 812 807 803 799 795 791 787 783 778 773 768 763 757 751 746 741 735 729 724 718 712 707 701 696 691 686 682 677 673 669 665 661 657 654 652 649
913 912 915 916 915 911 905 903 906 906 904 903 904 906 906 905 904 904 904 903 901 901 900 899 898 897 895 892 889 886 881 879 877 875 872 869 865 861 858 854 852 849 845 841 836 833 830 826 821 817 812 808 803 798 794 789 785 781 777 772 767 762 755 749 744 739 733 727 721 715 709 704 699 694 688 683 678 674 670 666 663 659 655 652 649 646
917 919 920 919 919 917 912 910 912 912 908 905 905 906 906 905 905 905 904 903 902 901 900 898 897 897 896 894 891 887 883 880 877 875 873 870 866 863 859 856 852 849 846 841 836 832 828 825 821 817 813 809 804 799 794 789 784 780 776 771 766 761 755 748 742 736 730 725 719 713 708 702 697 691 686 681 676 671 667 664 661 658 654 649 645 642
922 923 922 922 923 920 914 913 916 916 913 908 906 907 906 905 906 906 904 903 902 902 901 899 896 893 892 892 891 889 885 882 879 876 873 870 867 864 860 857 854 850 845 841 836 831 827 823 819 816 811 807 803 799 794 789 784 779 775 770 765 760 754 748 741 734 728 723 718 712 707 701 695 689 684 680 676 671 665 661 657 655 652 647 643 639